Juneau, WI

7:33 PM CDT on September 19, 2017 (GMT -0500)
Dodge County

Weather History for KUNU - November, 2012

Change the Weather History Date:

Sunday, November 18, 2012

  Actual Average Record
Temperature  
Mean Temperature 42 °F -  
Max Temperature 53 °F 43 °F 66 °F (1999)
Min Temperature 32 °F 29 °F 6 °F (2014)
Degree Days  
Heating Degree Days 22    
Moisture  
Dew Point 30 °F    
Average Humidity 66    
Maximum Humidity 93    
Minimum Humidity 33    
Precipitation  
Precipitation 0.00 in - - ()
Sea Level Pressure  
Sea Level Pressure 30.36 in    
Wind  
Wind Speed 8 mph (SE)    
Max Wind Speed 12 mph    
Max Gust Speed -    
Visibility 8 miles    
Events      
Averages and records for this station are not official NWS values.
T = Trace of Precipitation, MM = Missing Value Source: NWS Daily Summary

Daily Weather History Graph

Daily Weather History Graph

Search for Another Location

Airport or City:

Trip Planner

Search our weather history database for the weather conditions in past years. The results will help you decide how hot, cold, wet, or windy it might be!

Date:

Astronomy

Nov. 18, 2012 Rise Set
Actual Time 6:52 AM CST 4:27 PM CST
Civil Twilight 6:21 AM CST 4:58 PM CST
Nautical Twilight 5:46 AM CST 5:32 PM CST
Astronomical Twilight 5:12 AM CST 6:06 PM CST
Moon 11:17 AM CST (11/18) 9:49 PM CST (11/18)
Length of Visible Light 10h 36m
Length of Day
9h 34m
Waxing Crescent, 30% of the Moon is Illuminated
Nov 18
Waxing Crescent
Nov 20
First Quarter
Nov 28
Full
Dec 6
Last Quarter
Dec 13
New

Hourly Weather History & Observations

Time (CST) Temp. Windchill Dew Point Humidity Pressure Visibility Wind Dir Wind Speed Gust Speed Precip Events Conditions
12:15 AM 33.8 °F 27.0 °F 30.2 °F 87% 30.43 in 5.0 mi SE 8.1 mph - N/A   Haze
12:35 AM 35.6 °F 29.2 °F 30.2 °F 81% 30.42 in 5.0 mi SE 8.1 mph - N/A   Haze
12:55 AM 35.6 °F 29.9 °F 30.2 °F 81% 30.42 in 5.0 mi SE 6.9 mph - N/A   Haze
1:15 AM 33.8 °F 27.7 °F 30.2 °F 87% 30.43 in 4.0 mi SE 6.9 mph - N/A   Haze
1:35 AM 35.6 °F 29.2 °F 30.2 °F 81% 30.42 in 5.0 mi SE 8.1 mph - N/A   Haze
1:55 AM 35.6 °F 29.9 °F 30.2 °F 81% 30.43 in 5.0 mi SE 6.9 mph - N/A   Haze
2:15 AM 35.6 °F 29.2 °F 30.2 °F 81% 30.42 in 5.0 mi SE 8.1 mph - N/A   Haze
2:35 AM 35.6 °F 28.0 °F 30.2 °F 81% 30.42 in 5.0 mi SE 10.4 mph - N/A   Haze
2:55 AM 35.6 °F 29.2 °F 30.2 °F 81% 30.41 in 5.0 mi SE 8.1 mph - N/A   Haze
3:15 AM 33.8 °F 28.6 °F 30.2 °F 87% 30.41 in 5.0 mi SE 5.8 mph - N/A   Haze
3:35 AM 33.8 °F 26.4 °F 30.2 °F 87% 30.40 in 4.0 mi SE 9.2 mph - N/A   Haze
4:15 AM 33.8 °F 28.6 °F 30.2 °F 87% 30.41 in 4.0 mi SE 5.8 mph - N/A   Haze
4:35 AM 33.8 °F 27.7 °F 30.2 °F 87% 30.41 in 4.0 mi SE 6.9 mph - N/A   Haze
4:55 AM 33.8 °F 27.0 °F 30.2 °F 87% 30.41 in 4.0 mi SE 8.1 mph - N/A   Haze
5:15 AM 32.0 °F 24.8 °F 30.2 °F 93% 30.40 in 4.0 mi ESE 8.1 mph - N/A   Clear
5:35 AM 33.8 °F 27.7 °F 30.2 °F 87% 30.40 in 4.0 mi ESE 6.9 mph - N/A   Clear
5:55 AM 32.0 °F 25.6 °F 30.2 °F 93% 30.40 in 4.0 mi SE 6.9 mph - N/A   Clear
6:15 AM 33.8 °F 27.0 °F 32.0 °F 93% 30.40 in 5.0 mi SE 8.1 mph - N/A   Clear
6:35 AM 33.8 °F 26.4 °F 30.2 °F 87% 30.40 in 5.0 mi SE 9.2 mph - N/A   Haze
6:55 AM 33.8 °F 27.0 °F 30.2 °F 87% 30.40 in 5.0 mi SE 8.1 mph - N/A   Haze
7:15 AM 33.8 °F 27.0 °F 30.2 °F 87% 30.40 in 5.0 mi SE 8.1 mph - N/A   Haze
7:35 AM 33.8 °F 26.4 °F 30.2 °F 87% 30.40 in 5.0 mi SE 9.2 mph - N/A   Haze
7:55 AM 35.6 °F 29.2 °F 32.0 °F 87% 30.40 in 5.0 mi SE 8.1 mph - N/A   Haze
8:15 AM 37.4 °F 31.4 °F 32.0 °F 81% 30.40 in 5.0 mi SE 8.1 mph - N/A   Haze
8:35 AM 37.4 °F 31.4 °F 32.0 °F 81% 30.40 in 7.0 mi SSE 8.1 mph - N/A   Clear
8:55 AM 39.2 °F 34.2 °F 32.0 °F 75% 30.40 in 7.0 mi SE 6.9 mph - N/A   Clear
9:15 AM 41.0 °F 35.2 °F 32.0 °F 70% 30.40 in 7.0 mi SE 9.2 mph - N/A   Clear
9:35 AM 42.8 °F 37.0 °F 32.0 °F 66% 30.39 in 10.0 mi SE 10.4 mph - N/A   Clear
9:55 AM 44.6 °F 39.7 °F 32.0 °F 61% 30.39 in 10.0 mi SE 9.2 mph - N/A   Clear
10:15 AM 46.4 °F 41.9 °F 32.0 °F 57% 30.39 in 10.0 mi SSE 9.2 mph - N/A   Clear
10:35 AM 46.4 °F 41.9 °F 32.0 °F 57% 30.38 in 10.0 mi SSE 9.2 mph - N/A   Clear
10:55 AM 50.0 °F - 32.0 °F 50% 30.37 in 10.0 mi SSE 10.4 mph - N/A   Clear
11:15 AM 50.0 °F - 30.2 °F 47% 30.37 in 10.0 mi SSE 10.4 mph - N/A   Clear
11:35 AM 50.0 °F - 30.2 °F 47% 30.36 in 10.0 mi SSE 11.5 mph - N/A   Clear
11:55 AM 51.8 °F - 30.2 °F 44% 30.35 in 10.0 mi SSE 11.5 mph - N/A   Clear
12:15 PM 51.8 °F - 28.4 °F 41% 30.34 in 10.0 mi SE 10.4 mph - N/A   Clear
12:35 PM 51.8 °F - 28.4 °F 41% 30.34 in 10.0 mi SE 10.4 mph - N/A   Clear
12:55 PM 53.6 °F - 28.4 °F 38% 30.34 in 10.0 mi SSE 11.5 mph - N/A   Clear
1:15 PM 53.6 °F - 26.6 °F 35% 30.34 in 10.0 mi SSE 11.5 mph - N/A   Clear
1:35 PM 53.6 °F - 28.4 °F 38% 30.34 in 10.0 mi SE 9.2 mph - N/A   Clear
1:55 PM 53.6 °F - 30.2 °F 41% 30.32 in 10.0 mi SE 9.2 mph - N/A   Clear
2:15 PM 53.6 °F - 26.6 °F 35% 30.32 in 10.0 mi SSE 9.2 mph - N/A   Clear
2:35 PM 53.6 °F - 24.8 °F 33% 30.32 in 10.0 mi SSE 11.5 mph - N/A   Clear
2:55 PM 53.6 °F - 26.6 °F 35% 30.32 in 10.0 mi SSE 9.2 mph - N/A   Clear
3:15 PM 53.6 °F - 26.6 °F 35% 30.32 in 10.0 mi SSE 9.2 mph - N/A   Clear
3:35 PM 51.8 °F - 26.6 °F 38% 30.32 in 10.0 mi SSE 9.2 mph - N/A   Clear
3:55 PM 50.0 °F - 28.4 °F 43% 30.32 in 10.0 mi SSE 8.1 mph - N/A   Clear
4:15 PM 50.0 °F - 26.6 °F 40% 30.32 in 10.0 mi SSE 9.2 mph - N/A   Clear
4:35 PM 48.2 °F - 26.6 °F 43% 30.32 in 10.0 mi SSE 8.1 mph - N/A   Clear
4:55 PM 46.4 °F 42.4 °F 28.4 °F 50% 30.32 in 10.0 mi SSE 8.1 mph - N/A   Clear
5:15 PM 44.6 °F 39.7 °F 28.4 °F 53% 30.32 in 10.0 mi SE 9.2 mph - N/A   Clear
5:35 PM 44.6 °F 40.2 °F 28.4 °F 53% 30.32 in 10.0 mi SE 8.1 mph - N/A   Clear
5:55 PM 44.6 °F 40.2 °F 28.4 °F 53% 30.32 in 10.0 mi SSE 8.1 mph - N/A   Clear
6:15 PM 42.8 °F 38.0 °F 28.4 °F 57% 30.32 in 10.0 mi SSE 8.1 mph - N/A   Clear
6:35 PM 42.8 °F 39.3 °F 28.4 °F 57% 30.32 in 10.0 mi SE 5.8 mph - N/A   Clear
6:55 PM 42.8 °F 38.0 °F 30.2 °F 61% 30.32 in 10.0 mi SE 8.1 mph - N/A   Clear
7:15 PM 41.0 °F 35.2 °F 30.2 °F 65% 30.32 in 10.0 mi SE 9.2 mph - N/A   Clear
7:35 PM 42.8 °F 38.0 °F 30.2 °F 61% 30.33 in 10.0 mi SE 8.1 mph - N/A   Clear
7:55 PM 41.0 °F 35.2 °F 30.2 °F 65% 30.32 in 10.0 mi ESE 9.2 mph - N/A   Clear
8:15 PM 41.0 °F 35.2 °F 32.0 °F 70% 30.31 in 10.0 mi SE 9.2 mph - N/A   Clear
8:35 PM 41.0 °F 35.2 °F 32.0 °F 70% 30.32 in 10.0 mi SE 9.2 mph - N/A   Clear
8:55 PM 39.2 °F 33.6 °F 32.0 °F 75% 30.31 in 10.0 mi SE 8.1 mph - N/A   Clear
9:15 PM 39.2 °F 33.0 °F 32.0 °F 75% 30.31 in 10.0 mi ESE 9.2 mph - N/A   Clear
9:35 PM 39.2 °F 33.0 °F 32.0 °F 75% 30.30 in 7.0 mi SE 9.2 mph - N/A   Clear
9:55 PM 41.0 °F 35.2 °F 32.0 °F 70% 30.30 in 10.0 mi SE 9.2 mph - N/A   Clear
10:35 PM 41.0 °F 35.2 °F 32.0 °F 70% 30.29 in 10.0 mi SE 9.2 mph - N/A   Clear
10:55 PM 41.0 °F 35.2 °F 32.0 °F 70% 30.30 in 10.0 mi SE 9.2 mph - N/A   Clear
11:15 PM 39.2 °F 32.5 °F 30.2 °F 70% 30.29 in 10.0 mi SE 10.4 mph - N/A   Clear